1998-067UJ

Last updated on Fri Sep 16 2022 00:02:04 GMT+0000 (Coordinated Universal Time)

1 53771U 98067UJ 22256.89180023 .00064812 00000+0 10696-2 0 9995 2 53771 51.6409 257.0684 0003121 301.0078 59.0604 15.51651644 1168
UTC large
Height (km)
Speed (km/s)
/
Latitude / Longitude
Inclination (degrees)
Orbital Period (minutes)
Azimuth
Elevation
Range (km)
Doppler Factor

Next 0 passes for location: London (51.5072 / 0.1276)

Sorry there are no passes over London.